Preview of NWS' New Version of Forecast
This preview is not operational and should not be used for support decisions.

Regional Weather Roundup (RWR)

Issued by National Weather Service (NWS)

                            
000
ASUS45 KABQ 181001
RWRNM 
NEW MEXICO REGIONAL WEATHER ROUNDUP
NATIONAL WEATHER SERVICE ALBUQUERQUE NM
400 AM MDT THU APR 18 2019

NOTE: "FAIR" MEANS FEW OR NO CLOUDS BELOW 12,000 FEET AGL WITH NO
       SIGNIFICANT WEATHER OR OBSTRUCTIONS TO VISION.

      THIS PRODUCT IS RELEASED AS TWO VERSIONS.  ONE VERSION NEAR
      THE TOP OF THE HOUR CONTAINING PRELIMINARY DATA FROM ALBUQUERQUE
      AND OTHER STATIONS.  A FINAL VERSION WITH ADDITIONAL DATA IS 
      ISSUED ABOUT 10 MINUTES AFTER THE HOUR.
 
NMZ501-503-504-510>518-181100-
NORTHWEST PLATEAU/NORTHCENTRAL MOUNTAINS
  
CITY           SKY/WX    TMP DP  RH WIND       PRES   REMARKS
FARMINGTON     FAIR      48  24  39 W12       30.08R                  
LOS ALAMOS       N/A     39  39 100 NE5       30.10R                  
SANTA FE       CLOUDY    39  39 100 N10       30.07R FOG     WCI  32  
TAOS           FAIR      28  28 100 N5        30.14R WCI  23          

$$
NMZ402-403-502-505>509-181100-
WESTCENTRAL MOUNTAINS/SOUTHWEST MOUNTAINS
  
CITY           SKY/WX    TMP DP  RH WIND       PRES   REMARKS
GALLUP         FAIR      32  27  81 S3        30.16R                  
GRANTS         FAIR      37  29  73 NW10      30.15S WCI  29          
SILVER CITY    FAIR      42  39  89 NW9       30.10S                  

$$
NMZ407-409-411-412-181100-
SOUTHERN DESERTS
  
CITY           SKY/WX    TMP DP  RH WIND       PRES   REMARKS
DEMING         FAIR      46  41  82 SW6       30.08R                  
HOLLOMAN AFB   FAIR      44  41  91 N7        30.04R                  
ALAMOGORDO     FAIR      46  41  81 N7        30.02F                  
T OR C         FAIR      46  43  89 SW5       30.03F                  

$$
NMZ519>523-181100-
CENTRAL VALLEYS/CENTRAL HIGHLANDS
  
CITY           SKY/WX    TMP DP  RH WIND       PRES   REMARKS
ALBUQUERQUE    FOG       42  42 100 CALM      30.06R VSB 1/16         
DOUBLE EAGLE   FOG       36  36 100 CALM      30.08R VSB 1/4          
CLINES CORNERS FAIR      39  35  86 NW16      30.07R WCI  30          
BELEN          FAIR      40  40 100 CALM      30.06S                  
SOCORRO        NOT AVBL                                               

$$
NMZ524>526-539-540-181100-
SOUTHCENTRAL MOUNTAINS
  
CITY           SKY/WX    TMP DP  RH WIND       PRES   REMARKS
RUIDOSO        FAIR      43  36  75 NW8       30.09R                  

$$
NMZ527>531-181100-
NORTHEAST HIGHLANDS/NORTHEAST PLAINS
  
CITY           SKY/WX    TMP DP  RH WIND       PRES   REMARKS
LAS VEGAS      FAIR      35  33  92 NE3       30.07R                  
RATON          LGT RAIN  42  36  79 NE14      30.09R                  
CLAYTON        CLOUDY    45  34  65 N14       30.03R                  

$$
NMZ532>537-181100-
EASTCENTRAL PLAINS
  
CITY           SKY/WX    TMP DP  RH WIND       PRES   REMARKS
SANTA ROSA     FAIR      43  39  86 CALM      30.00R                  
TUCUMCARI      FAIR      46  40  79 N12       29.95R                  
CANNON AFB     FAIR      46  41  83 N13       29.97R                  
CLOVIS AIRPORT FAIR      45  42  89 N12       29.96R                  

$$
NMZ028-029-538-181100-
SOUTHEAST PLAINS
  
CITY           SKY/WX    TMP DP  RH WIND       PRES   REMARKS
ROSWELL        FAIR      48  41  76 N6        29.95R                  
ARTESIA        FAIR      46  41  81 N7        29.96R                  
CARLSBAD       FAIR      54  37  52 N7        29.93R                  
HOBBS          FAIR      52  41  66 NW15      29.93R                  


$$